Hourly Weather Godzikowo

Today, 15 May, Saturday

Time Temperature Precipitation Wind Pressure Humidity
00:00 +9°C° 0 mm 1 mps 742 mmHg 91%
01:00 +7°C° 0 mm 0 mps 742 mmHg 92%
02:00 +8°C° 0 mm 1 mps 742 mmHg 92%
03:00 +8°C° 0 mm 1 mps 742 mmHg 93%
04:00 +8°C° 0 mm 1 mps 743 mmHg 93%
05:00 +10°C° 0 mm 1 mps 743 mmHg 91%
06:00 +10°C° 0 mm 2 mps 743 mmHg 88%
07:00 +13°C° 0 mm 2 mps 743 mmHg 85%
08:00 +13°C° 0 mm 2 mps 743 mmHg 83%
09:00 +14°C° 0 mm 2 mps 744 mmHg 81%
10:00 +15°C° 0 mm 2 mps 744 mmHg 79%
11:00 +13°C° 0.1 mm 3 mps 744 mmHg 82%
12:00 +13°C° 0.1 mm 3 mps 744 mmHg 84%
13:00 +13°C° 0.1 mm 4 mps 744 mmHg 86%
14:00 +13°C° 0 mm 3 mps 744 mmHg 85%
15:00 +12°C° 0 mm 3 mps 744 mmHg 85%
16:00 +12°C° 0 mm 3 mps 745 mmHg 84%
17:00 +13°C° 0 mm 2 mps 745 mmHg 86%
18:00 +12°C° 0 mm 2 mps 744 mmHg 88%
19:00 +11°C° 0 mm 1 mps 744 mmHg 90%
20:00 +11°C° 0 mm 1 mps 745 mmHg 91%
21:00 +10°C° 0 mm 1 mps 745 mmHg 93%
22:00 +8°C° 0 mm 2 mps 745 mmHg 94%
23:00 +8°C° 0 mm 2 mps 745 mmHg 94%

Tomorrow, 16 May, Sunday

Time Temperature Precipitation Wind Pressure Humidity
00:00 +8°C° 0 mm 2 mps 745 mmHg 94%
01:00 +8°C° 0 mm 2 mps 745 mmHg 94%
02:00 +8°C° 0 mm 2 mps 745 mmHg 93%
03:00 +8°C° 0 mm 3 mps 744 mmHg 93%
04:00 +8°C° 0 mm 3 mps 744 mmHg 93%
05:00 +9°C° 0 mm 3 mps 744 mmHg 89%
06:00 +11°C° 0 mm 4 mps 744 mmHg 84%
07:00 +13°C° 0 mm 4 mps 744 mmHg 80%
08:00 +13°C° 0.2 mm 4 mps 744 mmHg 81%
09:00 +13°C° 0.2 mm 4 mps 744 mmHg 83%
10:00 +14°C° 0.2 mm 4 mps 744 mmHg 85%
11:00 +15°C° 0.5 mm 4 mps 744 mmHg 82%
12:00 +16°C° 0.5 mm 5 mps 743 mmHg 79%
13:00 +17°C° 0.5 mm 5 mps 743 mmHg 76%
14:00 +17°C° 0.8 mm 5 mps 743 mmHg 78%
15:00 +17°C° 0.8 mm 4 mps 742 mmHg 80%
16:00 +17°C° 0.8 mm 3 mps 742 mmHg 83%
17:00 +16°C° 1.1 mm 3 mps 742 mmHg 86%
18:00 +14°C° 1.1 mm 3 mps 742 mmHg 89%
19:00 +14°C° 1.1 mm 2 mps 741 mmHg 92%
20:00 +13°C° 1.4 mm 2 mps 741 mmHg 94%
21:00 +12°C° 1.4 mm 3 mps 741 mmHg 96%
22:00 +11°C° 1.4 mm 3 mps 741 mmHg 98%
23:00 +11°C° 1 mm 3 mps 741 mmHg 97%

Day after tomorrow, 17 May, Monday

Time Temperature Precipitation Wind Pressure Humidity
00:00 +10°C° 1 mm 3 mps 741 mmHg 96%
01:00 +10°C° 1 mm 3 mps 741 mmHg 95%
02:00 +9°C° 0 mm 3 mps 742 mmHg 95%
03:00 +9°C° 0 mm 3 mps 742 mmHg 95%
04:00 +8°C° 0 mm 3 mps 742 mmHg 95%
05:00 +10°C° 0 mm 3 mps 742 mmHg 92%
06:00 +11°C° 0 mm 4 mps 743 mmHg 90%
07:00 +12°C° 0 mm 4 mps 743 mmHg 87%
08:00 +14°C° 0.1 mm 4 mps 743 mmHg 80%
09:00 +15°C° 0.1 mm 4 mps 743 mmHg 74%
10:00 +17°C° 0.1 mm 4 mps 743 mmHg 67%
11:00 +18°C° 0.3 mm 4 mps 742 mmHg 65%
12:00 +18°C° 0.3 mm 4 mps 742 mmHg 64%
13:00 +19°C° 0.3 mm 5 mps 742 mmHg 62%
14:00 +18°C° 0.3 mm 4 mps 742 mmHg 67%
15:00 +17°C° 0.3 mm 4 mps 742 mmHg 71%
16:00 +17°C° 0.3 mm 4 mps 742 mmHg 76%
17:00 +14°C° 0.3 mm 3 mps 742 mmHg 81%
18:00 +14°C° 0.3 mm 2 mps 742 mmHg 86%
19:00 +13°C° 0.3 mm 1 mps 742 mmHg 91%
20:00 +12°C° 0.1 mm 1 mps 742 mmHg 92%
21:00 +12°C° 0.1 mm 2 mps 742 mmHg 93%
22:00 +12°C° 0.1 mm 2 mps 742 mmHg 94%
23:00 +12°C° 0.6 mm 2 mps 742 mmHg 95%

18 May, Tuesday

Time Temperature Precipitation Wind Pressure Humidity
00:00 +10°C° 0.6 mm 2 mps 741 mmHg 96%
01:00 +11°C° 0.6 mm 1 mps 741 mmHg 97%
02:00 +10°C° 1.8 mm 2 mps 741 mmHg 97%
03:00 +10°C° 1.8 mm 2 mps 741 mmHg 98%
04:00 +10°C° 1.8 mm 2 mps 741 mmHg 98%
05:00 +10°C° 2.6 mm 2 mps 741 mmHg 97%
06:00 +11°C° 2.6 mm 1 mps 741 mmHg 97%
07:00 +11°C° 2.6 mm 1 mps 741 mmHg 97%
08:00 +10°C° 0.4 mm 2 mps 741 mmHg 96%
09:00 +10°C° 0.4 mm 2 mps 741 mmHg 95%
10:00 +10°C° 0.4 mm 2 mps 741 mmHg 95%
11:00 +11°C° 0.2 mm 3 mps 741 mmHg 93%
12:00 +11°C° 0.2 mm 4 mps 741 mmHg 92%
13:00 +10°C° 0.2 mm 5 mps 741 mmHg 91%
14:00 +10°C° 0.1 mm 5 mps 742 mmHg 87%
15:00 +12°C° 0.1 mm 5 mps 742 mmHg 83%
16:00 +12°C° 0.1 mm 5 mps 742 mmHg 79%
17:00 +11°C° 0 mm 4 mps 742 mmHg 82%
18:00 +11°C° 0 mm 3 mps 742 mmHg 86%
19:00 +10°C° 0 mm 3 mps 742 mmHg 89%
20:00 +9°C° 0 mm 2 mps 743 mmHg 91%
21:00 +8°C° 0 mm 2 mps 743 mmHg 92%
22:00 +7°C° 0 mm 2 mps 743 mmHg 94%
23:00 +8°C° 0 mm 2 mps 743 mmHg 94%

19 May, Wednesday

Time Temperature Precipitation Wind Pressure Humidity
00:00 +8°C° 0 mm 2 mps 743 mmHg 94%
01:00 +8°C° 0 mm 3 mps 743 mmHg 94%
02:00 +8°C° 0 mm 3 mps 743 mmHg 95%
03:00 +7°C° 0 mm 4 mps 743 mmHg 95%
04:00 +7°C° 0 mm 4 mps 744 mmHg 95%
05:00 +8°C° 0.1 mm 5 mps 744 mmHg 94%
06:00 +8°C° 0.1 mm 5 mps 744 mmHg 92%
07:00 +8°C° 0.1 mm 6 mps 745 mmHg 91%
08:00 +9°C° 0.2 mm 6 mps 745 mmHg 86%
09:00 +10°C° 0.2 mm 6 mps 745 mmHg 81%
10:00 +11°C° 0.2 mm 7 mps 745 mmHg 77%
11:00 +11°C° 0.3 mm 6 mps 746 mmHg 74%
12:00 +11°C° 0.3 mm 6 mps 746 mmHg 71%
13:00 +13°C° 0.3 mm 6 mps 746 mmHg 69%
14:00 +13°C° 0.1 mm 6 mps 746 mmHg 68%
15:00 +13°C° 0.1 mm 5 mps 746 mmHg 68%
16:00 +13°C° 0.1 mm 5 mps 746 mmHg 68%
17:00 +11°C° 0.2 mm 4 mps 746 mmHg 75%
18:00 +10°C° 0.2 mm 3 mps 747 mmHg 82%
19:00 +9°C° 0.2 mm 2 mps 747 mmHg 89%
20:00 +8°C° 0 mm 2 mps 747 mmHg 90%
21:00 +7°C° 0 mm 2 mps 747 mmHg 91%
22:00 +5°C° 0 mm 3 mps 747 mmHg 93%
23:00 +5°C° 0 mm 3 mps 747 mmHg 92%

20 May, Thursday

Time Temperature Precipitation Wind Pressure Humidity
00:00 +4°C° 0 mm 3 mps 747 mmHg 92%
01:00 +4°C° 0 mm 3 mps 747 mmHg 92%
02:00 +4°C° 0 mm 3 mps 747 mmHg 93%
03:00 +4°C° 0 mm 3 mps 747 mmHg 93%
04:00 +4°C° 0 mm 4 mps 747 mmHg 94%
05:00 +6°C° 0 mm 4 mps 748 mmHg 90%
06:00 +7°C° 0 mm 5 mps 748 mmHg 86%
07:00 +9°C° 0 mm 5 mps 748 mmHg 82%
08:00 +10°C° 0.1 mm 5 mps 748 mmHg 76%
09:00 +12°C° 0.1 mm 5 mps 748 mmHg 70%
10:00 +13°C° 0.1 mm 5 mps 748 mmHg 64%
11:00 +13°C° 0.2 mm 5 mps 748 mmHg 63%
12:00 +14°C° 0.2 mm 5 mps 748 mmHg 62%
13:00 +14°C° 0.2 mm 5 mps 748 mmHg 62%
14:00 +14°C° 0.5 mm 5 mps 748 mmHg 65%
15:00 +13°C° 0.5 mm 4 mps 748 mmHg 69%
16:00 +13°C° 0.5 mm 4 mps 748 mmHg 72%
17:00 +12°C° 0.3 mm 3 mps 748 mmHg 76%
18:00 +11°C° 0.3 mm 3 mps 748 mmHg 80%
19:00 +10°C° 0.3 mm 2 mps 747 mmHg 84%
20:00 +9°C° 0 mm 2 mps 747 mmHg 87%
21:00 +8°C° 0 mm 3 mps 747 mmHg 90%
22:00 +7°C° 0 mm 3 mps 747 mmHg 93%
23:00 +7°C° 0.1 mm 3 mps 747 mmHg 93%
Show more